Date_and_time,latitude,longitude,wind_speed,RelWindDirFrom,WindDirFrom,air_pressure,air_temperature,relative_humidity,Temp,platform_speed_wrt_ground,air_pressure_at_mean_sea_level,platform_orientation
2019-08-22 00:00,50.6304533333333,-96.9807883333333,5.1,8.7,328,992.16,15.5,70,20.11,0.0,1018.56,246.4
2019-08-22 00:10,50.6304533333333,-96.9807866666667,6.3,10.7,333,991.92,16.3,65,20.12,0.0,1018.29,246.4
2019-08-22 00:20,50.63046,-96.980795,7.8,10.8,333,991.78,16.4,65,20.11,0.0,1018.14,246.4
2019-08-22 00:30,50.6304583333333,-96.9807816666667,8.8,12.5,338,991.85,16.4,65,20.12,0.0,1018.18,246.4
2019-08-22 00:40,50.6304566666667,-96.98078,8.4,12.9,335,992.00,16.2,63,20.12,0.0,1018.34,246.4
2019-08-22 00:50,50.6304566666667,-96.9807833333333,6.9,10.2,334,991.98,16.1,64,20.11,0.0,1018.35,246.4
2019-08-22 01:00,50.6304566666667,-96.9807816666667,7.1,10.2,334,992.06,16.0,62,20.09,0.0,1018.43,38.0
2019-08-22 01:10,50.6304566666667,-96.9807833333333,11.5,15.0,348,991.99,16.0,62,20.08,0.0,1018.38,38.0
2019-08-22 01:20,50.6304566666667,-96.9807833333333,10.8,15.5,342,992.06,15.8,61,20.06,0.0,1018.46,38.0
2019-08-22 01:30,50.6304633333333,-96.9807666666667,8.5,12.0,332,992.24,15.6,61,20.04,0.0,1018.69,38.0
2019-08-22 01:40,50.6304583333333,-96.9807766666667,7.4,10.9,333,992.42,15.3,61,20.03,0.0,1018.92,38.0
2019-08-22 01:50,50.6304566666667,-96.9807766666667,6.1,8.6,327,992.59,15.0,62,20.01,0.0,1019.09,38.0
2019-08-22 02:00,50.6304566666667,-96.980775,6.4,8.6,318,992.71,14.6,63,20.01,0.0,1019.20,90.0
2019-08-22 02:10,50.6304466666667,-96.9807916666667,5.8,8.5,311,992.77,14.3,63,20.00,0.0,1019.26,90.0
2019-08-22 02:20,50.6304533333333,-96.9807833333333,5.5,8.1,308,992.81,14.1,64,19.98,0.0,1019.31,90.0
2019-08-22 02:30,50.6304533333333,-96.980775,4.6,6.7,297,992.92,14.0,65,19.98,0.0,1019.44,90.0
2019-08-22 02:40,50.6304516666667,-96.9807766666667,4.6,6.6,288,993.01,14.1,65,19.99,0.0,1019.53,90.0
2019-08-22 02:50,50.6304533333333,-96.9807733333333,4.8,6.9,298,993.02,14.0,65,20.00,0.0,1019.55,90.0
2019-08-22 03:00,50.6304533333333,-96.9807733333333,5.4,8.3,309,993.02,14.1,66,20.01,0.0,1019.55,90.0
2019-08-22 03:10,50.6304883333333,-96.9807983333333,6.3,8.9,318,993.08,14.3,66,20.00,0.0,1019.61,90.0
2019-08-22 03:20,50.6304483333333,-96.9807683333333,7.0,9.6,315,993.10,14.5,65,19.99,0.0,1019.63,90.0
2019-08-22 03:30,50.6304633333333,-96.9807716666667,7.3,9.9,315,993.17,14.5,66,20.00,0.0,1019.72,90.0
2019-08-22 03:40,50.630465,-96.980775,6.5,9.3,316,993.21,14.6,66,20.00,0.0,1019.76,90.0
2019-08-22 03:50,50.6304633333333,-96.980775,6.8,9.6,318,993.27,14.6,66,19.99,0.0,1019.85,90.0
2019-08-22 04:00,50.6304633333333,-96.9807733333333,6.3,9.3,323,993.31,14.6,67,19.98,0.0,1019.90,12.6
2019-08-22 04:10,50.6304633333333,-96.9807733333333,6.9,10.2,319,993.24,14.6,66,19.98,0.0,1019.84,12.6
2019-08-22 04:20,50.6304633333333,-96.9807716666667,6.7,9.3,313,993.26,14.5,66,19.99,0.0,1019.86,12.6
2019-08-22 04:30,50.6304566666667,-96.98077,5.5,9.1,306,993.27,14.5,67,19.98,0.0,1019.88,12.6
2019-08-22 04:40,50.6304616666667,-96.9807683333333,6.6,10.4,315,993.17,14.4,67,19.96,0.0,1019.78,12.6
2019-08-22 04:50,50.6304633333333,-96.9807733333333,7.5,12.3,320,993.05,14.4,68,19.93,0.0,1019.66,12.6
2019-08-22 05:00,50.6304633333333,-96.980775,7.6,11.5,310,993.06,14.3,68,19.91,0.0,1019.66,360.0
2019-08-22 05:10,50.6304616666667,-96.9807733333333,7.5,11.0,319,993.07,14.3,68,19.90,0.0,1019.67,360.0
2019-08-22 05:20,50.6304633333333,-96.9807733333333,6.5,10.1,330,993.09,14.4,69,19.89,0.0,1019.67,360.0
2019-08-22 05:30,50.630455,-96.9807783333333,8.2,17.9,14,993.03,15.1,69,19.90,0.0,1019.58,360.0
2019-08-22 05:40,50.6304566666667,-96.9807833333333,15.5,18.7,46,992.89,15.9,69,19.91,0.0,1019.40,360.0
2019-08-22 05:50,50.6304566666667,-96.9807833333333,17.2,20.3,46,992.88,15.7,69,19.91,0.0,1019.39,360.0
2019-08-22 06:00,50.6304566666667,-96.9807866666667,17.0,21.3,46,992.85,15.5,70,19.90,0.0,1019.37,270.0
2019-08-22 06:10,50.6304816666667,-96.9808316666667,16.6,20.7,50,992.92,15.4,71,19.89,0.0,1019.46,270.0
2019-08-22 06:20,50.630455,-96.98079,16.8,20.1,51,992.95,15.3,71,19.89,0.0,1019.49,270.0
2019-08-22 06:30,50.6304583333333,-96.9807783333333,16.0,18.7,52,993.03,15.2,71,19.87,0.0,1019.58,270.0
2019-08-22 06:40,50.6304566666667,-96.9807833333333,15.1,17.7,53,993.13,15.1,71,19.85,0.0,1019.69,270.0
2019-08-22 06:50,50.6304583333333,-96.9807866666667,14.9,18.8,54,993.15,15.1,72,19.83,0.0,1019.71,270.0
2019-08-22 07:00,50.6304533333333,-96.98078,15.0,18.4,52,993.04,15.0,73,19.83,0.0,1019.61,192.6
2019-08-22 07:10,50.6304266666667,-96.980775,14.4,17.9,55,993.07,14.9,73,19.82,0.0,1019.63,192.6
2019-08-22 07:20,50.6304566666667,-96.9807716666667,14.5,17.6,67,993.07,14.8,74,19.82,0.0,1019.61,192.6
2019-08-22 07:30,50.6304566666667,-96.9807733333333,15.1,18.3,66,993.06,14.8,74,19.80,0.0,1019.56,192.6
2019-08-22 07:40,50.6304616666667,-96.9808283333333,14.0,16.5,66,993.06,14.6,72,19.79,0.0,1019.58,192.6
2019-08-22 07:50,50.6304533333333,-96.9807933333333,13.1,15.8,65,993.08,14.6,70,19.78,0.0,1019.61,192.6
2019-08-22 08:00,50.630455,-96.9807883333333,14.1,16.9,66,993.11,14.6,70,19.77,0.0,1019.64,222.8
2019-08-22 08:10,50.630455,-96.980785,13.5,16.6,72,993.18,14.6,69,19.76,0.0,1019.72,222.8
2019-08-22 08:20,50.6304566666667,-96.9807816666667,12.3,16.0,80,993.21,14.5,68,19.76,0.0,1019.76,222.8
2019-08-22 08:30,50.6304583333333,-96.9807783333333,11.7,14.7,75,993.20,14.4,70,19.76,0.0,1019.77,222.8
2019-08-22 08:40,50.630475,-96.9808283333333,11.1,13.9,78,993.27,14.2,70,19.76,0.0,1019.84,222.8
2019-08-22 08:50,50.630425,-96.9807966666667,9.9,13.0,76,993.33,14.2,70,19.75,0.0,1019.90,222.8
2019-08-22 09:00,50.63046,-96.9807816666667,9.6,12.6,77,993.36,14.2,71,19.75,0.0,1019.94,12.6
2019-08-22 09:10,50.6304583333333,-96.9807816666667,7.9,11.6,86,993.51,14.2,72,19.74,0.0,1020.10,12.6
2019-08-22 09:20,50.6304583333333,-96.980785,7.9,11.5,81,993.65,14.2,72,19.71,0.0,1020.25,12.6
2019-08-22 09:30,50.6304583333333,-96.9807816666667,6.9,10.9,93,993.83,14.2,73,19.67,0.0,1020.44,12.6
2019-08-22 09:40,50.6304583333333,-96.98078,6.9,9.5,97,993.87,14.1,72,19.63,0.0,1020.49,12.6
2019-08-22 09:50,50.6304583333333,-96.9807783333333,6.5,8.8,88,993.90,14.1,73,19.61,0.0,1020.52,12.6
2019-08-22 10:00,50.6304566666667,-96.9807783333333,6.2,8.7,95,993.92,14.1,73,19.58,0.0,1020.54,0.0
2019-08-22 10:10,50.630445,-96.98079,5.6,8.4,98,993.89,14.1,73,19.55,0.0,1020.51,0.0
2019-08-22 10:20,50.63045,-96.9807833333333,5.2,7.5,101,993.92,14.1,72,19.54,0.0,1020.55,0.0
2019-08-22 10:30,50.6304516666667,-96.98079,4.8,7.3,92,993.93,14.1,73,19.55,0.0,1020.57,0.0
2019-08-22 10:40,50.6304533333333,-96.9807866666667,4.8,7.6,81,993.89,14.1,72,19.55,0.0,1020.53,0.0
2019-08-22 10:50,50.6304533333333,-96.980785,5.2,8.1,85,993.82,14.1,73,19.53,0.0,1020.45,0.0
2019-08-22 11:00,50.6304533333333,-96.9807866666667,6.4,9.9,78,993.77,14.0,73,19.53,0.0,1020.40,0.0
2019-08-22 11:10,50.6304516666667,-96.9807833333333,6.0,8.4,86,993.76,14.0,73,19.55,0.0,1020.40,0.0
2019-08-22 11:20,50.6304516666667,-96.98078,6.3,9.0,82,993.77,14.1,74,19.54,0.0,1020.40,0.0
2019-08-22 11:30,50.6304516666667,-96.98078,6.1,8.8,90,993.84,14.1,73,19.52,0.0,1020.47,0.0
2019-08-22 11:40,50.6304516666667,-96.9807783333333,7.7,10.7,83,993.81,14.1,74,19.51,0.0,1020.45,0.0
2019-08-22 11:50,50.63047,-96.98078,9.4,11.6,71,993.68,14.1,75,19.52,0.0,1020.32,0.0
2019-08-22 12:00,50.6304583333333,-96.9807733333333,10.1,13.3,68,993.61,14.0,76,19.53,0.0,1020.25,90.0
2019-08-22 12:10,50.6304566666667,-96.980775,11.4,13.6,68,993.55,14.0,77,19.52,0.0,1020.18,90.0
2019-08-22 12:20,50.6304566666667,-96.9807783333333,11.7,15.3,69,993.43,13.9,77,19.52,0.0,1020.07,90.0
2019-08-22 12:30,50.6304566666667,-96.9807783333333,12.4,15.6,70,993.38,14.0,78,19.52,0.0,1020.01,90.0
2019-08-22 12:40,50.630455,-96.9807783333333,11.6,14.9,72,993.40,14.1,77,19.50,0.0,1020.03,90.0
2019-08-22 12:50,50.6304566666667,-96.9807783333333,11.2,14.5,70,993.36,14.1,77,19.50,0.0,1019.99,90.0
2019-08-22 13:00,50.6304583333333,-96.9807783333333,10.5,14.2,77,993.45,14.0,77,19.50,0.0,1020.09,360.0
2019-08-22 13:10,50.6304566666667,-96.9807766666667,9.4,12.5,77,993.63,14.1,77,19.50,0.0,1020.26,360.0
2019-08-22 13:20,50.6304583333333,-96.9807766666667,8.9,12.9,83,993.64,14.3,75,19.51,0.0,1020.27,360.0
2019-08-22 13:30,50.6304583333333,-96.9807766666667,8.1,11.2,91,993.73,14.3,76,19.51,0.0,1020.36,360.0
2019-08-22 13:40,50.6304583333333,-96.9807766666667,8.2,11.5,96,993.72,14.4,76,19.46,0.0,1020.34,360.0
2019-08-22 13:50,50.6304533333333,-96.9807666666667,7.3,10.7,105,993.89,14.4,76,19.44,0.0,1020.52,360.0
2019-08-22 14:00,50.6304533333333,-96.9807783333333,6.6,8.9,109,993.98,14.5,76,19.46,0.0,1020.61,90.0
2019-08-22 14:10,50.6304516666667,-96.980775,6.2,8.9,98,993.90,14.6,73,19.46,0.0,1020.53,90.0
2019-08-22 14:20,50.6304516666667,-96.9807766666667,5.8,11.0,106,993.78,14.5,74,19.44,0.0,1020.41,90.0
2019-08-22 14:30,50.63045,-96.980775,6.3,9.7,103,993.70,14.5,75,19.42,0.0,1020.32,90.0
2019-08-22 14:40,50.6304516666667,-96.980775,6.7,9.4,103,993.72,14.7,75,19.40,0.0,1020.33,90.0
2019-08-22 14:50,50.6304666666667,-96.9807716666667,6.6,9.6,103,993.79,14.7,75,19.38,0.0,1020.40,90.0
2019-08-22 15:00,50.630455,-96.9807683333333,7.3,10.5,109,993.70,14.6,74,19.38,0.0,1020.31,167.4
2019-08-22 15:10,50.6304533333333,-96.9807733333333,7.6,10.1,105,993.80,14.8,75,19.37,0.0,1020.40,167.4
2019-08-22 15:20,50.6304516666667,-96.9807716666667,7.4,9.9,98,993.78,15.0,74,19.36,0.0,1020.37,167.4
2019-08-22 15:30,50.6304533333333,-96.9807733333333,7.3,10.2,110,993.88,15.1,72,19.36,0.0,1020.47,167.4
2019-08-22 15:40,50.6304216666667,-96.98076,7.5,10.2,109,993.97,15.3,70,19.37,0.0,1020.54,167.4
2019-08-22 15:50,50.6304483333333,-96.9807666666667,6.8,11.1,118,993.99,15.3,69,19.39,0.0,1020.56,167.4
2019-08-22 16:00,50.6304433333333,-96.980765,6.1,9.1,124,994.04,15.2,66,19.39,0.0,1020.61,148.9
2019-08-22 16:10,50.6304483333333,-96.9807733333333,6.4,8.9,139,994.19,14.7,67,19.39,0.0,1020.79,148.9
2019-08-22 16:20,50.6304416666667,-96.9807733333333,5.7,8.8,121,994.34,15.2,66,19.39,0.0,1020.92,148.9
2019-08-22 16:30,50.6304466666667,-96.9807666666667,6.4,9.0,112,994.20,15.9,64,19.39,0.0,1020.74,148.9
2019-08-22 16:40,50.630455,-96.9807766666667,6.2,8.8,109,994.20,16.2,63,19.41,0.0,1020.73,148.9
2019-08-22 16:50,50.6304566666667,-96.98078,5.7,8.1,114,994.32,16.0,62,19.44,0.0,1020.86,148.9
2019-08-22 17:00,50.6304483333333,-96.980795,5.7,8.1,105,994.28,16.3,62,19.46,0.0,1020.80,240.8
2019-08-22 17:10,50.630455,-96.9807883333333,6.1,8.1,103,994.33,16.5,58,19.46,0.0,1020.83,240.8
2019-08-22 17:20,50.630455,-96.980785,5.1,7.8,101,994.23,16.7,57,19.42,0.0,1020.71,240.8
2019-08-22 17:30,50.6304366666667,-96.9807833333333,5.9,8.6,94,993.96,17.0,55,19.41,0.0,1020.41,240.8
2019-08-22 17:40,50.630455,-96.9807866666667,5.7,8.8,98,993.83,17.1,56,19.41,0.0,1020.27,240.8
2019-08-22 17:50,50.63044,-96.980785,4.8,8.3,103,993.74,17.0,57,19.41,0.0,1020.18,240.8
2019-08-22 18:00,50.6304583333333,-96.98081,5.0,7.8,86,993.70,17.4,56,19.43,0.0,1020.16,280.2
2019-08-22 18:10,50.63045,-96.98078,5.2,8.1,89,993.60,17.2,57,19.47,0.0,1020.03,280.2
2019-08-22 18:20,50.6304516666667,-96.9807783333333,5.9,8.8,104,993.54,17.5,58,19.47,0.0,1019.93,280.2
2019-08-22 18:30,50.6304483333333,-96.9807716666667,5.1,7.4,104,993.38,17.5,58,19.48,0.0,1019.75,280.2
2019-08-22 18:40,50.6304516666667,-96.980795,5.6,8.1,91,993.15,17.8,57,19.55,0.0,1019.51,280.2
2019-08-22 18:50,50.6304433333333,-96.9807866666667,8.1,10.5,79,993.02,17.6,58,19.59,0.0,1019.37,280.2
2019-08-22 19:00,50.6304416666667,-96.980795,8.2,11.2,73,993.11,17.4,60,19.60,0.0,1019.46,270.0
2019-08-22 19:10,50.6304416666667,-96.9807916666667,6.4,9.7,81,993.19,17.4,58,19.58,0.0,1019.53,270.0
2019-08-22 19:20,50.63046,-96.9807816666667,5.4,8.5,91,993.34,18.0,57,19.56,0.0,1019.65,270.0
2019-08-22 19:30,50.6304433333333,-96.9807816666667,4.1,6.1,86,993.33,18.3,55,19.54,0.0,1019.63,270.0
2019-08-22 19:40,50.63045,-96.9807716666667,3.6,6.4,74,993.22,18.2,57,19.54,0.0,1019.52,270.0
2019-08-22 19:50,50.630455,-96.9807783333333,3.1,5.1,87,993.26,18.6,55,19.55,0.0,1019.52,270.0
2019-08-22 20:00,50.6304533333333,-96.9807783333333,3.1,4.7,86,993.28,18.9,54,19.56,0.0,1019.54,60.8
2019-08-22 20:10,50.6304616666667,-96.9807933333333,2.8,4.8,79,993.15,19.0,54,19.57,0.0,1019.39,60.8
2019-08-22 20:20,50.630455,-96.98079,4.8,6.8,68,992.96,18.4,57,19.58,0.0,1019.22,60.8
2019-08-22 20:30,50.6304583333333,-96.9807883333333,3.7,5.4,64,992.97,18.0,57,19.63,0.0,1019.23,60.8
2019-08-22 20:40,50.6304233333333,-96.98078,4.9,6.5,61,992.87,17.9,57,19.75,0.0,1019.15,60.8
2019-08-22 20:50,50.63045,-96.9807666666667,4.8,6.1,58,992.72,17.9,58,19.81,0.0,1019.00,60.8
2019-08-22 21:00,50.6304516666667,-96.9807633333333,5.5,7.2,58,992.51,18.1,58,19.81,0.0,1018.78,100.0
2019-08-22 21:10,50.6304516666667,-96.980785,5.8,7.3,60,992.31,18.2,58,19.83,0.0,1018.54,100.0
2019-08-22 21:20,50.6304433333333,-96.9807716666667,5.8,7.2,63,992.27,18.4,58,19.87,0.0,1018.48,100.0
2019-08-22 21:30,50.6304533333333,-96.9807633333333,5.2,7.0,68,992.26,18.9,56,19.89,0.0,1018.44,100.0
2019-08-22 21:40,50.630455,-96.9807666666667,4.8,6.1,70,992.17,19.2,55,19.88,0.0,1018.33,100.0
2019-08-22 21:50,50.6304533333333,-96.9807683333333,4.6,6.5,73,992.15,19.6,54,19.90,0.0,1018.27,100.0
2019-08-22 22:00,50.6304533333333,-96.9807716666667,5.9,8.0,72,992.00,19.7,55,19.99,0.0,1018.11,57.7
2019-08-22 22:10,50.6304533333333,-96.98078,5.8,7.2,76,991.87,20.0,54,20.05,0.0,1017.99,57.7
2019-08-22 22:20,50.6304583333333,-96.98077,6.1,7.7,74,991.74,20.1,55,20.06,0.0,1017.87,57.7
2019-08-22 22:30,50.6304483333333,-96.9807816666667,7.4,8.7,74,991.72,20.1,55,20.03,0.0,1017.85,57.7
2019-08-22 22:40,50.630435,-96.9807833333333,7.7,9.7,76,991.69,20.2,55,19.93,0.0,1017.82,57.7
2019-08-22 22:50,50.63044,-96.9807916666667,7.9,9.9,76,991.69,20.4,55,19.90,0.0,1017.80,57.7
2019-08-22 23:00,50.6304416666667,-96.9807866666667,7.9,10.0,79,991.65,20.6,55,19.91,0.0,1017.75,194.5
2019-08-22 23:10,50.6304416666667,-96.980785,7.3,9.4,82,991.63,20.8,54,19.94,0.0,1017.71,194.5
2019-08-22 23:20,50.6304433333333,-96.980785,7.2,10.4,84,991.63,21.2,53,19.93,0.0,1017.66,194.5
2019-08-22 23:30,50.6304366666667,-96.9807766666667,8.6,10.9,78,991.65,21.0,55,19.97,0.0,1017.68,194.5
